Regional Weather Roundup
Issued by NWS Albany, NY

Home | Current Version | Previous Version | Graphics & Text | Print | Product List | Glossary Off
Versions: 1 2 3 4 5 6 7 8 9 10 11 12 13 14 15 16 17 18 19 20 21 22 23 24 25 26 27

000
ASUS41 KALY 240110
RWRALY

NEW YORK STATE HOURLY WEATHER ROUNDUP
NATIONAL WEATHER SERVICE ALBANY NY
900 PM EDT SAT SEP 23 2017

NOTE: "FAIR" INDICATES FEW OR NO CLOUDS BELOW 12,000 FEET WITH NO
SIGNIFICANT WEATHER AND/OR NO OBSTRUCTIONS TO VISIBILITY.

NYZ032-033-038>043-046>054-057>066-NYZ062>081-082-084-240200-
EAST


CITY           SKY/WX    TMP DP  RH WIND       PRES   REMARKS
ALBANY         CLEAR     67  60  78 CALM      30.06R
GLENS FALLS    CLEAR     65  60  84 CALM      30.05S
POUGHKEEPSIE   CLEAR     65  59  81 CALM      30.04R
NEWBURGH       CLEAR     70  61  73 N6        30.07S
MONTGOMERY     CLEAR     65  63  93 CALM      30.06R
WHITE PLAINS   CLEAR     71  54  54 NW7       30.04S
ISLIP          CLEAR     70  65  84 SE7       30.03R
NEW YORK CITY  CLEAR     80  54  40 N3        30.02S
CENTRAL PARK   CLEAR     78  51  38 CALM      30.06S
$$

NYZ005>009-017-018-044>046-055-056-240200-
CENTRAL


CITY           SKY/WX    TMP DP  RH WIND       PRES   REMARKS
FULTON         CLEAR     65  61  87 CALM      30.08S
SYRACUSE       PTCLDY    69  62  78 CALM      30.07S
ROME           CLEAR     66  61  84 NE3       30.09R
ELMIRA         CLEAR     67  64  90 CALM      30.11R
BINGHAMTON     CLEAR     72  60  66 N6        30.14R
MONTICELLO     CLEAR     70  58  65 NW5       30.13S
$$

NYZ026>034-041>043-087-240200-
NORTH


CITY           SKY/WX    TMP DP  RH WIND       PRES   REMARKS
WATERTOWN      CLEAR     68  57  68 S3        30.06S
FORT DRUM      NOT AVBL
OGDENSBURG     FAIR      67  62  84 S3        30.05S
MASSENA        CLEAR     70  64  81 SW3       30.05R
SARANAC LAKE   PTCLDY    63  62  97 CALM      30.11R
PLATTSBURGH    CLEAR     65  61  87 CALM      30.04R
$$

NYZ001>004-010>016-019>021-085-240200-
WEST


CITY           SKY/WX    TMP DP  RH WIND       PRES   REMARKS
NIAGARA FALLS  CLEAR     74  60  61 SW5       30.10R
BUFFALO        CLEAR     73  59  61 SW5       30.11S
DUNKIRK        CLEAR     66  64  93 CALM      30.13R
JAMESTOWN      CLEAR     73  62  68 CALM      30.18S
WELLSVILLE     CLEAR     70  61  73 NW6       30.20R
ROCHESTER      PTCLDY    72  68  87 SW5       30.09S
PENN YAN       CLEAR     69  61  75 SW5       30.12R
$$

             KEY
       WCI = WIND CHILL INDEX
       VSB = VISIBILITY
       HX  = HEAT INDEX
$$




USA.gov is the U.S. government's official web portal to all federal, state and local government web resources and services.